Tracking 28790 objects as of 19-Apr-2024
HD Live streaming from Space Station
objects crossing your sky now

COSMOS 1275 DEB

Track COSMOS 1275 DEB now!
10-day predictions


NORAD ID: 12740
Int'l Code: 1981-053CH
Perigee: 790.2 km
Apogee: 818.1 km
Inclination: 82.8 °
Period: 100.8 minutes
Semi major axis: 7175 km
RCS: 0.0069 m2 (small)
Launch date: June 4, 1981
Source: Commonwealth of Independent States (former USSR) (CIS)
Launch site: PLESETSK MISSILE AND SPACE COMPLEX (PKMTR)

Note: This is SATELLITE DEBRIS
Your satellite tracking list
Your tracking list is empty




NASA's NSSDC Master Catalog

Two Line Element Set (TLE):
1 12740U 81053CH  24110.56252437  .00010765  00000-0  42861-2 0  9995
2 12740  82.8403 137.2985 0019418  49.6219 105.3621 14.28424571184414
Source of the keplerian elements: AFSPC